Location: La Fredeussais
(48.1780°N, 1.3980°W)
Time: 16:54:00
(UTC+00:00)

Cosmos 1470 Rocket - Pass Details

Date: 09 May 2021
Orbit: 603 x 634 km, 82.5° (Epoch: 23 June)

Event Time Altitude Azimuth Distance (km) Brightness Sun altitude
Rises 21:48:15 0° 345° (NNW) 2,938 8.4 -17.8°
Reaches altitude 10° 21:50:33 10° 340° (NNW) 2,027 7.4 -18.0°
Maximum altitude 21:54:53 49° 267° (W) 825 4.3 -18.4°
Enters shadow 21:57:23 23° 202° (SSW) 1,348 5.0 -18.6°
